[[{"header":{"parameterUnit":"m.s-1","parameterCategory":1,"la1":30.2991,"la2":30.254,"lo1":-89.0895,"lo2":-89.0444,"dy":0.0017,"dx":0.0017,"nx":28,"ny":28,"refTime":"2024-04-19T03:00:00:Z","depth":0,"parameterNumber":2,"parameterNumberName":"U-component_of_WINDS"},"data":[0,0,0,0,0,0,0,0,0,0,0,0,0,0,0,0,0,0,0,0,0,0,0,0,0,0,0,0,0,0,0,0,0,0,0,0,0,0,0,0,0,0,0,0,0,0,0,0,0,0,0,0,0,0,0,0,0,0,0.5963,0.5965,0,0.6132,0.6134,0.6136,0.6199,0.6198,0.6197,0.6197,0.637,0.6375,0.638,0,0,0,0,0,0,0,0,0,0,0,0,0,0.5691,0.5695,0.5963,0.5965,0.5967,0.6132,0.6134,0.6136,0.6199,0.6198,0.6197,0.6197,0.6368,0.6374,0.638,0,0,0,0,0,0,0,0,0,0,0,0,0,0.5829,0.5697,0.5962,0.6018,0.6024,0.6131,0.6134,0.6137,0.6199,0.6198,0.6197,0.6196,0.6366,0.6374,0.6381,0.6445,0,0,0.6405,0.6408,0,0,0,0,0,0,0,0,0.5821,0.5839,0.6008,0.6014,0.6022,0.6143,0.6102,0.624,0.6199,0.6133,0.6197,0.6196,0.6295,0.6309,0.6342,0.6453,0.646,0.6405,0.641,0.6413,0.6415,0,0,0,0,0,0,0,0.5812,0.5832,0.603,0.601,0.6019,0.6033,0.6052,0.6128,0.6216,0.6138,0.6143,0.6162,0.6299,0.6335,0.6347,0.6463,0.6405,0.6412,0.6417,0.642,0.6632,0.6633,0,0,0,0,0,0,0.5793,0.5824,0.6024,0.6035,0.5917,0.6039,0.606,0.6105,0.6216,0.6232,0.6163,0.6165,0.6322,0.6338,0.6353,0.6434,0.6413,0.642,0.6425,0.6631,0.6632,0.6633,0,0,0,0,0,0,0.5787,0.581,0.6017,0.5931,0.5958,0.6045,0.6095,0.6109,0.6145,0.6234,0.625,0.6183,0.6322,0.6342,0.6421,0.644,0.6424,0.6431,0.6629,0.6631,0.6633,0.6596,0,0,0,0,0,0,0.5779,0.5808,0.5834,0.5931,0.5963,0.6083,0.6096,0.6113,0.6158,0.6162,0.6258,0.6273,0.6323,0.6409,0.6429,0.6451,0.6437,0.6628,0.663,0.6632,0.6596,0.6596,0.6596,0,0,0,0,0,0.5769,0.5817,0.5835,0.5858,0.5997,0.6084,0.6103,0.6159,0.6159,0.6185,0.6242,0.627,0.6435,0.6417,0.6439,0.6464,0.6627,0.663,0.6632,0.6595,0.6596,0.6596,0,0,0,0,0,0,0.572,0.5831,0.5852,0.5933,0.5999,0.6095,0.613,0.6158,0.6225,0.6226,0.6293,0.6314,0.6387,0.6433,0.6411,0.653,0.6533,0.654,0.6497,0.6498,0.6498,0.6486,0.6443,0,0,0,0,0,0.5719,0.5781,0.5874,0.5937,0.5969,0.6043,0.6083,0.6121,0.6192,0.622,0.6283,0.6351,0.6417,0.646,0.6527,0.6602,0.6623,0.663,0.663,0.6629,0.6635,0.6676,0.668,0.6641,0.6641,0.6641,0,0,0.5717,0.5785,0.582,0.5929,0.5984,0.6046,0.6066,0.6132,0.6178,0.623,0.6309,0.6356,0.6436,0.6512,0.6549,0.6553,0.665,0.6632,0.6632,0.6637,0.6679,0.6682,0.6685,0.6642,0.6642,0.6642,0,0,0.5745,0.5803,0.5861,0.5916,0.5999,0.6048,0.6061,0.6153,0.6187,0.6266,0.6306,0.6361,0.6476,0.653,0.6572,0.6617,0.6645,0.6637,0.6639,0.6678,0.6681,0.6684,0.6699,0.6704,0.6642,0.6642,0.6642,0,0.5732,0.5828,0.5887,0.595,0.5995,0.6044,0.6102,0.6152,0.6253,0.6283,0.6285,0.6428,0.6485,0.6574,0.6585,0.6618,0.6635,0.6627,0.6676,0.6679,0.6683,0.6698,0.6704,0.6641,0.6641,0.6641,0.6641,0,0.5807,0.5873,0.5909,0.6005,0.6055,0.6115,0.6181,0.6224,0.6256,0.6304,0.6383,0.6452,0.6533,0.6557,0.6589,0.665,0.6649,0.6663,0.6667,0.6684,0.6699,0.6706,0.6638,0.6639,0.6639,0.664,0,0,0.5812,0.5937,0.595,0.5993,0.6087,0.6138,0.6199,0.6278,0.6313,0.638,0.6432,0.6526,0.6538,0.6586,0.6625,0.6659,0.6689,0.6669,0.6672,0.6669,0.6758,0.6747,0.6753,0.6707,0.6708,0.6709,0.6751,0,0.5852,0.5965,0.6018,0.6106,0.6167,0.6212,0.6265,0.6328,0.6373,0.643,0.6481,0.6546,0.6558,0.6587,0.6623,0.6677,0.6707,0.6675,0.6755,0.6757,0.6734,0.6761,0.6751,0.6787,0.6757,0.6758,0.6759,0,0.5915,0.5981,0.6076,0.6161,0.6188,0.6235,0.631,0.6364,0.6435,0.6466,0.6517,0.6554,0.6619,0.6617,0.6706,0.6683,0.6718,0.675,0.6752,0.6762,0.676,0.6771,0.68,0.6805,0.6769,0.6768,0.6768,0,0.5908,0.602,0.6091,0.6127,0.6228,0.6259,0.6303,0.6373,0.6416,0.6481,0.6509,0.658,0.662,0.6673,0.6728,0.6722,0.6811,0.6814,0.6837,0.6836,0.6855,0.6853,0.6889,0.6877,0.6877,0.6877,0.6877,0,0.5948,0.6003,0.6089,0.6132,0.6195,0.6255,0.6315,0.6362,0.6423,0.6475,0.6519,0.6567,0.6636,0.6692,0.6734,0.68,0.6818,0.6844,0.6854,0.684,0.6837,0.6865,0.6864,0.6878,0.6878,0.6878,0.6877,0,0.5951,0.6011,0.609,0.6179,0.6202,0.6245,0.632,0.6363,0.6409,0.6475,0.6493,0.6566,0.6634,0.6694,0.6784,0.6812,0.688,0.6893,0.6856,0.6862,0.6881,0.6878,0.6936,0.6947,0.6927,0.6927,0.6927,0,0.5973,0.6016,0.6109,0.6147,0.619,0.6251,0.6294,0.6353,0.6397,0.6479,0.6512,0.6583,0.6643,0.6749,0.6809,0.6877,0.6893,0.6908,0.6903,0.6887,0.6892,0.6889,0.6893,0.6908,0.6908,0.6908,0.6908,0,0.6004,0.6031,0.6093,0.6164,0.6215,0.6274,0.6334,0.6362,0.6432,0.6478,0.6548,0.6594,0.6685,0.6754,0.6829,0.6872,0.6901,0.6909,0.6918,0.6904,0.688,0.6892,0.6855,0.6908,0.6908,0.6908,0.6908,0.6908,0.6017,0.6058,0.6129,0.6195,0.6246,0.6301,0.6345,0.6396,0.6456,0.6534,0.6565,0.6636,0.6703,0.6806,0.6849,0.6904,0.6909,0.6922,0.6926,0.6928,0.6925,0.687,0.6918,0.6918,0.6918,0.6918,0.6918,0,0.6051,0.6098,0.6159,0.6241,0.6292,0.6315,0.6382,0.6423,0.6485,0.6546,0.6603,0.6682,0.6749,0.6813,0.6883,0.6914,0.6929,0.6931,0.6929,0.6938,0.6917,0.6902,0.6917,0.6917,0.6917,0.6917,0.6917,0.6917,0.6074,0.6143,0.6178,0.6271,0.6318,0.6388,0.6424,0.6474,0.6522,0.6609,0.6664,0.6706,0.6767,0.6841,0.6903,0.692,0.6943,0.6941,0.6961,0.6941,0.694,0.6939,0.6926,0.6946,0.6946,0.6978,0.6979,0.6979]},{"header":{"parameterUnit":"m.s-1","parameterCategory":1,"la1":30.2991,"la2":30.254,"lo1":-89.0895,"lo2":-89.0444,"dy":0.0017,"dx":0.0017,"nx":28,"ny":28,"refTime":"2024-04-19T03:00:00:Z","depth":0,"parameterNumber":3,"parameterNumberName":"V-component_of_WINDS"},"data":[0,0,0,0,0,0,0,0,0,0,0,0,0,0,0,0,0,0,0,0,0,0,0,0,0,0,0,0,0,0,0,0,0,0,0,0,0,0,0,0,0,0,0,0,0,0,0,0,0,0,0,0,0,0,0,0,0,0,4.1817,4.1817,0,4.1792,4.1792,4.1791,4.1773,4.1773,4.1773,4.1773,4.1744,4.1743,4.1742,0,0,0,0,0,0,0,0,0,0,0,0,0,4.1848,4.1848,4.1817,4.1817,4.1817,4.1792,4.1791,4.1791,4.1773,4.1773,4.1773,4.1773,4.1744,4.1743,4.1742,0,0,0,0,0,0,0,0,0,0,0,0,0,4.183,4.1848,4.1817,4.1805,4.1803,4.1792,4.1791,4.1791,4.1773,4.1773,4.1773,4.1773,4.1744,4.1743,4.1742,4.174,0,0,4.1739,4.1739,0,0,0,0,0,0,0,0,4.1831,4.1829,4.1807,4.1806,4.1804,4.1786,4.1792,4.1774,4.1773,4.1785,4.1773,4.1773,4.1757,4.1755,4.1751,4.1738,4.1737,4.1739,4.1738,4.1738,4.1738,0,0,0,0,0,0,0,4.1832,4.183,4.1807,4.1807,4.1805,4.18,4.1797,4.1788,4.1772,4.1784,4.1782,4.178,4.1757,4.1752,4.175,4.1737,4.1739,4.1738,4.1738,4.1737,4.1722,4.1723,0,0,0,0,0,0,4.1836,4.1831,4.1808,4.1806,4.1817,4.1799,4.1796,4.1792,4.1772,4.1769,4.178,4.1779,4.1754,4.1751,4.1749,4.1746,4.1738,4.1737,4.1736,4.1722,4.1722,4.1723,0,0,0,0,0,0,4.1837,4.1834,4.1809,4.1818,4.1815,4.1799,4.1794,4.1791,4.1787,4.177,4.1767,4.1778,4.1753,4.175,4.1743,4.1745,4.1737,4.1736,4.1722,4.1722,4.1722,4.1739,0,0,0,0,0,0,4.1838,4.1834,4.1834,4.1818,4.1814,4.1804,4.1794,4.1791,4.1785,4.1784,4.1767,4.1764,4.1753,4.1744,4.1742,4.1743,4.1735,4.1722,4.1722,4.1722,4.1738,4.174,4.1741,0,0,0,0,0,4.1839,4.1838,4.1834,4.1831,4.1813,4.1804,4.1801,4.179,4.1786,4.1785,4.1774,4.1765,4.1745,4.1744,4.1741,4.1742,4.1721,4.1722,4.1722,4.1738,4.174,4.1741,0,0,0,0,0,0,4.1853,4.1836,4.1831,4.1826,4.1817,4.1801,4.1799,4.1792,4.1783,4.1782,4.1766,4.1763,4.1757,4.1748,4.1747,4.1739,4.1732,4.1732,4.1745,4.1747,4.1748,4.175,4.1734,0,0,0,0,0,4.1856,4.185,4.1836,4.1832,4.1828,4.1815,4.181,4.1802,4.1791,4.1787,4.1776,4.1765,4.1757,4.1751,4.1742,4.1737,4.1734,4.1736,4.1738,4.1739,4.1739,4.1737,4.1738,4.1724,4.1724,4.1724,0,0,4.1861,4.1851,4.1848,4.1835,4.1827,4.1821,4.1811,4.1805,4.1801,4.1786,4.1778,4.177,4.1757,4.1751,4.1748,4.1744,4.1743,4.174,4.1741,4.174,4.1738,4.1739,4.174,4.1724,4.1724,4.1724,0,0,4.1867,4.186,4.1857,4.1849,4.1838,4.1829,4.1828,4.1814,4.1808,4.1801,4.179,4.1784,4.1769,4.1761,4.1755,4.176,4.1751,4.1758,4.1765,4.1763,4.1764,4.1765,4.1768,4.1769,4.1758,4.1758,4.1758,0,4.1875,4.1867,4.1856,4.1851,4.1846,4.1833,4.183,4.1823,4.1809,4.1805,4.1801,4.1784,4.1774,4.1767,4.1768,4.1763,4.1762,4.1759,4.1765,4.1766,4.1767,4.1769,4.177,4.1758,4.1758,4.1758,4.1758,0,4.1877,4.1871,4.187,4.1859,4.1853,4.1849,4.1837,4.1833,4.1826,4.1817,4.181,4.1798,4.1788,4.1785,4.1777,4.1777,4.1775,4.1768,4.1761,4.1769,4.1771,4.1771,4.176,4.1759,4.1759,4.1759,0,0,4.1891,4.1874,4.1874,4.1869,4.1856,4.1851,4.1847,4.1838,4.1834,4.1825,4.1821,4.181,4.1805,4.1797,4.1789,4.1787,4.1793,4.1781,4.178,4.1784,4.1792,4.1797,4.1798,4.1787,4.1787,4.1787,4.1794,0,4.1896,4.1888,4.1879,4.1874,4.1869,4.1858,4.1854,4.1846,4.1838,4.1832,4.1823,4.1816,4.1809,4.1805,4.1803,4.1793,4.1794,4.1792,4.1783,4.1783,4.1787,4.1799,4.1804,4.181,4.1794,4.1794,4.1794,0,4.19,4.1893,4.1888,4.1877,4.1875,4.1872,4.1863,4.1858,4.1848,4.1842,4.1836,4.1827,4.1821,4.1815,4.1808,4.1806,4.1802,4.1797,4.1797,4.1795,4.1789,4.1798,4.1812,4.1813,4.1795,4.1795,4.1795,0,4.1911,4.19,4.1897,4.1893,4.1879,4.1877,4.1872,4.1862,4.1857,4.1849,4.1846,4.1838,4.1833,4.1826,4.1815,4.1812,4.1809,4.1802,4.1804,4.1804,4.1804,4.1804,4.1817,4.1801,4.1801,4.1801,4.1801,0,4.1917,4.1915,4.1902,4.1899,4.1896,4.1886,4.1883,4.1876,4.1868,4.1864,4.1853,4.1849,4.1835,4.183,4.1821,4.1816,4.1814,4.1809,4.1807,4.181,4.1811,4.1807,4.1806,4.1801,4.1801,4.1801,4.1801,0,4.1929,4.192,4.1915,4.1904,4.1901,4.1899,4.1889,4.1886,4.1879,4.1874,4.1872,4.1859,4.1852,4.1841,4.183,4.1825,4.1822,4.1818,4.1826,4.1824,4.1827,4.1827,4.1839,4.184,4.1823,4.1823,4.1823,0,4.1933,4.1932,4.1921,4.1918,4.1913,4.1908,4.1904,4.1893,4.1889,4.1879,4.1877,4.187,4.1864,4.1853,4.1843,4.1835,4.1831,4.1836,4.1829,4.1833,4.1831,4.1832,4.1832,4.1837,4.1837,4.1837,4.1837,0,4.1943,4.1939,4.1934,4.1927,4.1923,4.1917,4.1911,4.1909,4.1897,4.1893,4.1887,4.1882,4.1872,4.1865,4.1856,4.1849,4.1841,4.184,4.184,4.1843,4.1848,4.1846,4.183,4.1839,4.1839,4.1839,4.1839,4.1839,4.1951,4.1949,4.1942,4.1937,4.1931,4.1926,4.1923,4.1916,4.1911,4.1903,4.1897,4.1891,4.1882,4.187,4.1864,4.1859,4.1855,4.1855,4.1855,4.1856,4.1857,4.1849,4.1857,4.1857,4.1857,4.1857,4.1857,0,4.196,4.1955,4.1951,4.1943,4.1939,4.1933,4.1926,4.1923,4.1919,4.1912,4.1906,4.19,4.1893,4.1883,4.1876,4.1874,4.187,4.1872,4.1872,4.1871,4.1861,4.1861,4.1876,4.1876,4.1876,4.1876,4.1876,4.1876,4.1964,4.1961,4.1957,4.1951,4.1946,4.1941,4.1938,4.1933,4.1928,4.1921,4.1916,4.191,4.1902,4.1895,4.1889,4.1886,4.1884,4.1887,4.1883,4.1873,4.1872,4.187,4.1871,4.1887,4.1887,4.1894,4.1894,4.1894]}]]